Location: Broletto
(44.6000°N, 10.5833°E)
Time: 07:53:42
(UTC+00:00)

MetOp-B - Pass Details

Date: 18 April 2021
Orbit: 819 x 822 km, 98.7° (Epoch: 06 May)

Event Time Altitude Azimuth Distance (km) Brightness Sun altitude
Exits shadow 19:52:04 29° 144° (SE) 1,480 4.9 -17.6°
Maximum altitude 19:54:49 64° 72° (ENE) 909 4.2 -18.0°
Drops below altitude 10° 20:00:07 10° 352° (N) 2,427 7.2 -18.7°
Sets 20:02:29 0° 349° (N) 3,364 8.1 -19.1°
